Location: Bailleul
(50.3375°N, 2.8513°E)
Time: 13:52:55
(UTC+00:00)

Okean 1-7 Rocket - Pass Details

Date: 16 June 2021
Orbit: 616 x 649 km, 82.5° (Epoch: 04 August)

Event Time Altitude Azimuth Distance (km) Brightness Sun altitude
Exits shadow 23:06:13 26° 152° (SSE) 1,240 4.5 -15.7°
Maximum altitude 23:08:20 47° 93° (E) 845 4.1 -15.7°
Drops below altitude 10° 23:12:37 10° 21° (NNE) 2,018 7.1 -15.8°
Sets 23:14:54 0° 15° (NNE) 2,925 8.3 -15.9°
